Regional Weather Roundup
Issued by NWS

Home | Current Version | Previous Version | Text Only | Print | Product List | Glossary Off
Versions: 1 2 3 4 5 6 7 8 9 10 11 12 13 14 15 16 17 18 19 20 21 22 23 24 25 26 27 28 29 30 31 32 33 34 35 36 37 38 39 40 41 42 43 44 45 46 47 48 49 50

000
ASUS44 KMEG 252110
RWRTN
TENNESSEE HOURLY STATE WEATHER ROUNDUP
NATIONAL WEATHER SERVICE MEMPHIS TN
400 PM CDT WED MAY 25 2016

TNZ002-004-019-021-049-052-054-088>092-252200-
WEST TENNESSEE

CITY           SKY/WX    TMP DP  RH WIND       PRES   REMARKS
MEMPHIS INTL   TSTM      70  66  87 VRB6      30.10S FOG
NWS MEMPHIS      N/A     67 N/A N/A MISG        N/A
JACKSON        CLOUDY    83  71  67 S10       30.05S
DYERSBURG      CLOUDY    68  64  88 E10G28    30.00F THUNDER
UNION CITY     CLOUDY    73  73 100 S5        30.05S
PARIS          CLOUDY    66  66 100 NE5       30.10R VSB 3/4
$$

TNZ008-025-027-028-033-062-065-066-252200-
NORTH MIDDLE TENNESSEE

CITY           SKY/WX    TMP DP  RH WIND       PRES   REMARKS
NASHVILLE      CLOUDY    83  62  49 S6        30.09F
CLARKSVILLE    CLOUDY    69  67  93 NE6       30.09F
SMYRNA         MOSUNNY   85  63  47 S8        30.09F
COOKEVILLE     SUNNY     82  64  54 S6        30.14F
CROSSVILLE     PTSUNNY   77  59  53 VRB5      30.21S
$$

TNZ061-075-076-078-094-096-097-252200-
SOUTH MIDDLE TENNESSEE

CITY           SKY/WX    TMP DP  RH WIND       PRES   REMARKS
FAYETTEVILLE   SUNNY     86  59  39 S14       30.13F
TULLAHOMA      SUNNY     82  57  42 S10       30.14F
WINCHESTER     MOSUNNY   86  57  37 S9        30.14F
MCMINNVILLE    SUNNY     84  63  48 S9        30.14F
COLUMBIA       SUNNY     88  64  45 S9        30.07F
SHELBYVILLE    MOSUNNY   88  61  40 S15       30.12F
$$

TNZ017-018-042-046-047-252200-
NORTHEAST TENNESSEE

CITY           SKY/WX    TMP DP  RH WIND       PRES   REMARKS
TRI CITIES     PTSUNNY   83  55  38 W5        30.18F
$$

TNZ012-013-036-069-073-074-252200-
CENTRAL EAST TENNESSEE

CITY           SKY/WX    TMP DP  RH WIND       PRES   REMARKS
KNOXVILLE      PTSUNNY   84  57  39 W14       30.16F
OAK RIDGE      PTSUNNY   82  60  47 VRB3      30.17F
GATLINBURG     SUNNY     82  57  42 CALM      30.15F
$$

TNZ083-085-099-252200-
SOUTHEAST TENNESSEE

CITY           SKY/WX    TMP DP  RH WIND       PRES   REMARKS
CHATTANOOGA    PTSUNNY   87  54  32 S9        30.14F
$$

SKY/WX REPORTED AS FAIR MEANS FEW OR NO CLOUDS BELOW
12 THOUSAND FEET.





USA.gov is the U.S. government's official web portal to all federal, state and local government web resources and services.